Weather History for Pecos, TX

Change the Weather History Date:

Tuesday, March 11, 2014

  Actual Average Record
Temperature  
Mean Temperature 67 °F -  
Max Temperature 83 °F 73 °F 99 °F (1937)
Min Temperature 51 °F 39 °F 12 °F (1948)
Cooling Degree Days 2    
Growing Degree Days 17 (Base 50)    
Moisture  
Dew Point 26 °F    
Average Humidity 24    
Maximum Humidity 46    
Minimum Humidity 10    
Precipitation  
Precipitation 0.00 in - - ()
Sea Level Pressure  
Sea Level Pressure 29.79 in    
Wind  
Wind Speed 16 mph (WSW)    
Max Wind Speed 37 mph    
Max Gust Speed 44 mph    
Visibility 10 miles    
Events      
Averages and records for this station are not official NWS values.
T = Trace of Precipitation, MM = Missing Value Source: NWS Daily Summary

Daily Weather History Graph

Daily Weather History Graph

Search for Another Location

Airport:

Trip Planner

Search our weather history database for the weather conditions in past years. The results will help you decide how hot, cold, wet, or windy it might be!

Date:

Astronomy

Mar. 11, 2014 Rise Set
Actual Time 8:08 AM CDT 7:59 PM CDT
Civil Twilight 7:44 AM CDT 8:23 PM CDT
Nautical Twilight 7:16 AM CDT 8:51 PM CDT
Astronomical Twilight 6:48 AM CDT 9:20 PM CDT
Moon 3:50 PM CDT (3/11) 4:50 AM CDT (3/11)
Length of Visible Light 12h 38m
Length of Day
11h 50m
Waxing Gibbous, 78% of the Moon is Illuminated
Mar 11
Waxing Gibbous
Mar 16
Full
Mar 23
Last Quarter
Mar 30
New
Apr 7
First Quarter

Hourly Weather History & Observations

Time (CDT) Temp. Dew Point Humidity Pressure Visibility Wind Dir Wind Speed Gust Speed Precip Events Conditions
12:15 AM 55.4 °F 33.1 °F 43% 29.87 in 10.0 mi SW 10.4 mph - N/A   Clear
12:35 AM 55.4 °F 33.8 °F 44% 29.86 in 10.0 mi SW 9.2 mph - N/A   Clear
12:55 AM 56.7 °F 33.3 °F 41% 29.84 in 10.0 mi SW 11.5 mph - N/A   Clear
1:15 AM 57.0 °F 32.0 °F 39% 29.84 in 10.0 mi SW 9.2 mph - N/A   Clear
1:35 AM 54.3 °F 32.0 °F 43% 29.83 in 10.0 mi SSW 9.2 mph - N/A   Clear
1:55 AM 53.4 °F 31.8 °F 44% 29.82 in 10.0 mi SW 10.4 mph - N/A   Clear
2:15 AM 55.4 °F 31.6 °F 40% 29.81 in 10.0 mi SW 10.4 mph - N/A   Clear
2:35 AM 53.1 °F 31.1 °F 43% 29.81 in 10.0 mi SW 6.9 mph - N/A   Clear
2:55 AM 51.1 °F 31.1 °F 46% 29.80 in 10.0 mi SW 8.1 mph - N/A   Clear
3:15 AM 52.0 °F 31.5 °F 46% 29.80 in 10.0 mi SW 10.4 mph - N/A   Clear
3:35 AM 53.8 °F 32.0 °F 44% 29.79 in 10.0 mi SW 10.4 mph - N/A   Clear
3:55 AM 54.1 °F 32.5 °F 44% 29.78 in 10.0 mi WSW 10.4 mph - N/A   Clear
4:15 AM 58.5 °F 33.6 °F 39% 29.77 in 10.0 mi WSW 11.5 mph - N/A   Clear
4:35 AM 59.5 °F 33.4 °F 37% 29.77 in 10.0 mi SW 11.5 mph - N/A   Clear
4:55 AM 59.9 °F 33.8 °F 38% 29.76 in 10.0 mi SW 10.4 mph - N/A   Clear
5:15 AM 59.9 °F 33.8 °F 38% 29.75 in 10.0 mi SW 10.4 mph - N/A   Clear
5:35 AM 60.8 °F 34.0 °F 37% 29.75 in 10.0 mi WSW 13.8 mph 19.6 mph N/A   Clear
5:55 AM 61.0 °F 34.0 °F 36% 29.74 in 10.0 mi WSW 15.0 mph 21.9 mph N/A   Clear
6:15 AM 61.2 °F 33.8 °F 36% 29.74 in 10.0 mi WSW 17.3 mph 24.2 mph N/A   Clear
6:35 AM 61.2 °F 33.4 °F 35% 29.73 in 10.0 mi WSW 17.3 mph 23.0 mph N/A   Clear
6:55 AM 61.2 °F 33.3 °F 35% 29.74 in 10.0 mi WSW 18.4 mph 24.2 mph N/A   Clear
7:15 AM 61.2 °F 33.1 °F 35% 29.74 in 10.0 mi WSW 19.6 mph 25.3 mph N/A   Clear
7:35 AM 61.0 °F 32.9 °F 35% 29.74 in 10.0 mi WSW 20.7 mph 25.3 mph N/A   Clear
7:55 AM 61.0 °F 32.9 °F 35% 29.74 in 10.0 mi WSW 20.7 mph - N/A   Clear
8:15 AM 60.8 °F 32.9 °F 35% 29.74 in 10.0 mi WSW 21.9 mph 27.6 mph N/A   Clear
8:35 AM 61.7 °F 32.9 °F 34% 29.75 in 10.0 mi WSW 25.3 mph 29.9 mph N/A   Clear
8:55 AM 62.8 °F 32.9 °F 33% 29.76 in 10.0 mi WSW 26.5 mph 34.5 mph N/A   Clear
9:15 AM 64.4 °F 32.4 °F 30% 29.76 in 10.0 mi WSW 26.5 mph 33.4 mph N/A   Clear
9:35 AM 66.4 °F 32.4 °F 28% 29.77 in 10.0 mi WSW 27.6 mph 35.7 mph N/A   Clear
9:55 AM 68.2 °F 32.0 °F 26% 29.78 in 10.0 mi West 26.5 mph 39.1 mph N/A   Clear
10:15 AM 70.2 °F 30.7 °F 23% 29.79 in 10.0 mi West 29.9 mph 38.0 mph N/A   Clear
10:35 AM 71.6 °F 30.4 °F 22% 29.79 in 7.0 mi West 36.8 mph 43.7 mph N/A   Clear
10:55 AM 72.9 °F 29.8 °F 20% 29.80 in 10.0 mi West 29.9 mph 39.1 mph N/A   Clear
11:15 AM 74.8 °F 29.5 °F 19% 29.80 in 10.0 mi West 32.2 mph 39.1 mph N/A   Clear
11:35 AM 75.9 °F 28.4 °F 17% 29.81 in 10.0 mi West 28.8 mph 41.4 mph N/A   Clear
11:55 AM 76.5 °F 27.7 °F 17% 29.80 in 7.0 mi West 26.5 mph 40.3 mph N/A   Clear
12:15 PM 77.2 °F 27.3 °F 16% 29.80 in 10.0 mi West 32.2 mph 42.6 mph N/A   Clear
12:35 PM 77.2 °F 26.6 °F 15% 29.80 in 10.0 mi West 34.5 mph 41.4 mph N/A   Clear
12:55 PM 78.1 °F 26.2 °F 15% 29.79 in 10.0 mi West 32.2 mph 41.4 mph N/A   Clear
1:15 PM 79.5 °F 26.2 °F 14% 29.79 in 10.0 mi West 32.2 mph 40.3 mph N/A   Clear
1:35 PM 79.7 °F 25.2 °F 13% 29.78 in 10.0 mi West 29.9 mph 39.1 mph N/A   Clear
1:55 PM 81.1 °F 24.6 °F 13% 29.77 in 10.0 mi WSW 26.5 mph 35.7 mph N/A   Clear
2:15 PM 81.1 °F 23.2 °F 12% 29.77 in 10.0 mi West 31.1 mph 35.7 mph N/A   Clear
2:35 PM 81.5 °F 22.5 °F 11% 29.76 in 10.0 mi West 29.9 mph 39.1 mph N/A   Clear
2:55 PM 82.6 °F 22.3 °F 11% 29.76 in 10.0 mi West 27.6 mph 33.4 mph N/A   Clear
3:15 PM 82.9 °F 22.8 °F 11% 29.75 in 10.0 mi West 24.2 mph 33.4 mph N/A   Clear
3:35 PM 82.9 °F 23.2 °F 11% 29.74 in 10.0 mi West 28.8 mph 38.0 mph N/A   Clear
3:55 PM 82.9 °F 21.4 °F 10% 29.73 in 10.0 mi West 24.2 mph 36.8 mph N/A   Clear
4:15 PM 82.9 °F 23.5 °F 11% 29.73 in 10.0 mi West 20.7 mph 32.2 mph N/A   Clear
4:35 PM 82.9 °F 21.4 °F 10% 29.73 in 10.0 mi West 21.9 mph 29.9 mph N/A   Clear
4:55 PM 83.3 °F 21.2 °F 10% 29.72 in 10.0 mi West 20.7 mph 26.5 mph N/A   Clear
5:15 PM 83.7 °F 21.2 °F 10% 29.73 in 10.0 mi West 20.7 mph 28.8 mph N/A   Clear
5:35 PM 83.3 °F 21.0 °F 10% 29.73 in 10.0 mi West 23.0 mph 27.6 mph N/A   Clear
5:55 PM 82.8 °F 21.0 °F 10% 29.73 in 10.0 mi West 16.1 mph 26.5 mph N/A   Clear
6:15 PM 82.0 °F 20.7 °F 10% 29.73 in 10.0 mi West 19.6 mph 24.2 mph N/A   Clear
6:35 PM 81.7 °F 19.9 °F 10% 29.74 in 10.0 mi West 17.3 mph 24.2 mph N/A   Clear
6:55 PM 80.8 °F 19.4 °F 10% 29.74 in 10.0 mi West 18.4 mph - N/A   Clear
7:15 PM 79.9 °F 19.4 °F 11% 29.75 in 10.0 mi West 13.8 mph - N/A   Clear
7:35 PM 78.1 °F 19.2 °F 11% 29.76 in 10.0 mi West 13.8 mph 17.3 mph N/A   Clear
7:55 PM 75.0 °F 18.3 °F 12% 29.77 in 10.0 mi WSW 10.4 mph - N/A   Clear
8:15 PM 71.8 °F 17.2 °F 13% 29.77 in 10.0 mi WSW 10.4 mph - N/A   Clear
8:35 PM 69.6 °F 16.5 °F 13% 29.79 in 10.0 mi WSW 9.2 mph - N/A   Clear
8:55 PM 67.1 °F 15.8 °F 14% 29.80 in 10.0 mi SW 6.9 mph - N/A   Clear
9:15 PM 61.9 °F 15.8 °F 17% 29.81 in 10.0 mi SSW 8.1 mph - N/A   Clear
9:35 PM 61.2 °F 15.8 °F 17% 29.82 in 10.0 mi SW 9.2 mph - N/A   Clear
9:55 PM 61.0 °F 14.5 °F 16% 29.84 in 10.0 mi WSW 9.2 mph - N/A   Clear
10:15 PM 61.5 °F 14.5 °F 16% 29.85 in 10.0 mi WSW 10.4 mph - N/A   Clear
10:35 PM 60.6 °F 14.9 °F 17% 29.88 in 10.0 mi WNW 9.2 mph 19.6 mph N/A   Clear
10:55 PM 63.1 °F 16.0 °F 16% 29.90 in 10.0 mi NNW 10.4 mph - N/A   Clear
11:15 PM 60.8 °F 15.4 °F 17% 29.91 in 10.0 mi West 8.1 mph - N/A   Clear
11:35 PM 58.3 °F 14.7 °F 18% 29.91 in 10.0 mi West 11.5 mph - N/A   Clear
11:55 PM 63.0 °F 17.2 °F 17% 29.98 in 5.0 mi North 29.9 mph 40.3 mph N/A   Haze